This demonstration page uses our WeatherBlox Daily Observations layout. Learn more.

Hourly Observations for June 12, 2020

Temp ( °F °C ) Dew Point ( °F °C ) Humidity (%) Winds ( mph kmh ) Pressure ( in mb ) Visibility ( mi km ) Precip ( " mm )
12:54 am 00:54 Clear 67 19.4 52 11.1 59 59 N 3 6 30.23 1024 10 16.0934 0 0
1:54 am 01:54 Clear 66 18.9 53 11.7 63 63 N 3 6 30.24 1024 10 16.0934 0 0
2:54 am 02:54 Clear 60 15.6 54 12.2 80 80 N 7 11 30.24 1024 10 16.0934 0 0
3:54 am 03:54 Clear 59 15 53 11.7 81 81 N 6 9 30.24 1024 10 16.0934 0 0
4:54 am 04:54 Clear 57 13.9 52 11.1 83 83 N 5 7 30.23 1024 10 16.0934 0 0
5:54 am 05:54 Clear 56 13.3 52 11.1 87 87 NNW 3 6 30.22 1024 10 16.0934 0 0
6:54 am 06:54 Sunny 62 16.7 55 12.8 78 78 Calm 30.22 1024 10 16.0934 0 0
7:54 am 07:54 Sunny 67 19.4 57 13.9 71 71 N 9 15 30.23 1024 10 16.0934 0 0
8:54 am 08:54 Sunny 75 23.9 55 12.8 50 50 E 7 11 30.24 1024 10 16.0934 0 0
9:54 am 09:54 Sunny 79 26.1 57 13.9 47 47 ESE 9 15 30.24 1024 10 16.0934 0 0
10:54 am 10:54 Sunny 82 27.8 59 15 46 46 ESE 9 15 30.23 1024 10 16.0934 0 0
11:54 am 11:54 Sunny 85 29.4 60 15.6 43 43 SSE 9 15 30.22 1024 10 16.0934 0 0
12:54 pm 12:54 Sunny 87 30.6 59 15 39 39 SE 12 19 30.22 1023 10 16.0934 0 0
1:54 pm 13:54 Sunny 89 31.7 59 15 36 36 ESE 12 19 30.2 1023 10 16.0934 0 0
2:54 pm 14:54 Sunny 90 32.2 56 13.3 32 32 E 13 20 30.18 1022 10 16.0934 0 0
3:54 pm 15:54 Sunny 90 32.2 54 12.2 29 29 ESE 13 20 30.17 1022 10 16.0934 0 0
4:54 pm 16:54 Sunny 90 32.2 54 12.2 29 29 E 8 13 30.15 1021 10 16.0934 0 0
5:54 pm 17:54 Sunny 89 31.7 56 13.3 33 33 SE 9 15 30.14 1021 10 16.0934 0 0
6:54 pm 18:54 Sunny 88 31.1 56 13.3 34 34 ESE 9 15 30.13 1020 10 16.0934 0 0
7:54 pm 19:54 Sunny 85 29.4 56 13.3 37 37 E 10 17 30.13 1020 10 16.0934 0 0
8:54 pm 20:54 Sunny 82 27.8 56 13.3 41 41 ESE 8 13 30.12 1020 10 16.0934 0 0
9:54 pm 21:54 Clear 79 26.1 57 13.9 47 47 ESE 8 13 30.12 1020 10 16.0934 0 0
10:54 pm 22:54 Clear 77 25 57 13.9 50 50 ESE 8 13 30.13 1020 10 16.0934 0 0
11:54 pm 23:54 Clear 76 24.4 57 13.9 52 52 ESE 7 11 30.13 1020 10 16.0934 0 0

Powered by AerisWeather